Regional Weather Roundup
Issued by NWS Green Bay, WI

Home | Current Version | Previous Version | Graphics & Text | Print | Product List | Glossary Off
Versions: 1 2 3 4 5 6 7 8 9 10 11 12 13 14 15 16 17 18 19 20 21 22 23 24 25 26 27 28 29 30 31 32 33 34 35 36 37 38 39 40 41 42 43 44 45 46 47 48 49 50

000
ASUS43 KGRB 022211
RWRGRB

NORTH-CENTRAL AND NORTHEAST WISCONSIN REGIONAL WEATHER ROUNDUP
NATIONAL WEATHER SERVICE GREEN BAY WI
500 PM CDT WED SEP 02 2015

WIZ005-009-010>012-018-019-022300-
NORTH CENTRAL WISCONSIN

CITY           SKY/WX    TMP DP  RH WIND       PRES   REMARKS
IRONWOOD       CLOUDY    68  64  88 N9        29.94R
MANITOWISH WTR CLOUDY    69  68  97 CALM      29.97R
ARBOR VITAE    CLOUDY    69  68  94 E5        29.96S
EAGLE RIVER    CLOUDY    69  68  97 NE3       29.97R
LAND O LAKES   LGT RAIN  69  67  94 E5        29.98F
RHINELANDER    CLOUDY    71  67  87 E7        29.96S
PHILLIPS       PTSUNNY   67  67  97 CALM      29.95S
ANTIGO         CLOUDY    68  66  93 E9        29.93F
TOMAHAWK       CLOUDY    69  67  92 CALM      29.95F
MERRILL        CLOUDY    71  69  95 NE3       29.95R
$$

WIZ013-073-022300-
NORTHEAST WISCONSIN

CITY           SKY/WX    TMP DP  RH WIND       PRES   REMARKS
IRON MOUNTAIN  LGT RAIN  72  69  90 E3        29.96F
MARINETTE      CLOUDY    66  63  88 NE3       29.93F
OCONTO         CLOUDY    71  71 100 E7        29.93S
$$

WIZ017-030-035>037-045-022300-
CENTRAL WISCONSIN

CITY           SKY/WX    TMP DP  RH WIND       PRES   REMARKS
MEDFORD        DRIZZLE   67  66  97 E7        29.93F
WAUSAU         LGT RAIN  72  68  87 E15       29.87F
MOSINEE        TSTM      73  73 100 S9        29.92F
MARSHFIELD     PTSUNNY   81  68  64 SE3       29.92F
WISC RAPIDS    MOSUNNY   86  65  49 S12       29.92F
STEVENS POINT  MOSUNNY   82  66  57 SW8       29.92F
WAUPACA        MOSUNNY   88  67  49 S8        29.92F HX  91
SHAWANO        PTSUNNY   79  67  65 E6        29.92F
CLINTONVILLE   MOSUNNY   81  64  57 NE8       29.91F
WAUTOMA        SUNNY     88  65  46 SW9       29.93S HX  90
$$

WIZ038-039-048-051-022300-
FOX VALLEY

CITY           SKY/WX    TMP DP  RH WIND       PRES   REMARKS
NWS GREEN BAY  PTSUNNY   85  70  60 S7        29.92F
APPLETON       MOSUNNY   84  63  48 S13       29.92S
OSHKOSH        MOSUNNY   84  67  56 SW12      29.93S
FOND DU LAC    MOSUNNY   85  68  56 SW8       29.94S
$$

WIZ022-050-052-022300-
EAST CENTRAL WISCONSIN

CITY           SKY/WX    TMP DP  RH WIND       PRES   REMARKS
EPHRAIM        LGT RAIN  68  66  93 W12G21    30.02R
STURGEON BAY   CLOUDY    70  64  83 NE12      29.97S
MANITOWOC      PTSUNNY   79  70  74 MISG      29.94S
SHEBOYGAN      PTSUNNY   84  70  62 W12       29.95R
$$

LMZ563-521-522-541>543-022300-
LAKESHORE

STATION/POSITION TIME  TEMP    WIND        PRES    VSBY  WAVE
                       AIR SEA DIR/SP/G                  HT/PER
                 (UTC) (F)     (DEG/KT/KT) (MB)    (MI)  (FT/S)
SHEBOYGAN LKSHOR 2200   74     180/ 11/ 12 1013.7R
KEWAUNEE LKSHORE 2100   61     160/  6/  7 1012.8F
ALGOMA MARINA    2114           80/  7/  8   N/A
NORTHPORT PIER   2100   68     140/  5/  6 1014.2S
N MID LAKE BUOY  2150   68 66  160/  4/  6 1013.5F         1/ 2
S GREEN BAY BUOY 2100   75 69  150/ 10/ 16 1014.9
SISTER BAY LKSHO 2119          110/  9/ 12   N/A
CHAMBERS ISLAND  2100   68      40/  7/ 11 1013.9S
MENOMINEE LKSHOR 2100   69     310/ 18/ 21 1013.5R
$$



USA.gov is the U.S. government's official web portal to all federal, state and local government web resources and services.